User: anonymous   Login
Location: Unspecified
(0.0000°N, 0.0000°E)
Time: 00:07:26
(UTC+00:00)
Language:

LAPAN A3 - Orbit

View from above orbital plane
View from above orbital plane
View from above satellite
View from above satellite

Ground track
Ground track

The orbit data is extracted from the following two-line orbital elements,

1 41603U 16040E   17265.51815359  .00000194  00000-0  12374-4 0  9998
2 41603  97.4512 326.2904 0015569  93.9674  17.2450 15.19412757 69437
Epoch (UTC): 22 September 2017 12:26:08
Eccentricity: 0.0015569
inclination: 97.4512°
perigee height: 497 km
apogee height: 518 km
right ascension of ascending node: 326.2904°
argument of perigee: 93.9674°
revolutions per day: 15.19412757
mean anomaly at epoch: 17.2450°
orbit number at epoch: 6943

The dashed part of the orbit path shows where the satellite is in the earth's shadow,  

DLR